AFR604 TFFF-SOCA

Flight info

Callsign AFR604
Flight time 1h 52m
Altitude 39000
Route BORUS2R BORUS DCT BGI UA555 TRAPP UM786 KALEP KALEP1U
Aircraft A320/M-SDE2E3FGIJ1RWY/HB1

Departure

Time 2026-04-30 10:59
Airport Martinique Aimé Césaire International Airport (TFFF)

Arrival

Time 2026-04-30 12:52
Airport Cayenne – Félix Eboué Airport (SOCA)
Time Latitude Longitude Altitude Speed Heading
2026-04-30 10:28 14.59442 -60.99970 19 ft 0 kts
2026-04-30 10:47 14.59428 -60.99972 18 ft 2 kts
2026-04-30 10:47 14.59411 -60.99975 18 ft 2 kts 346°
2026-04-30 10:47 14.59396 -60.99969 19 ft 2 kts 335°
2026-04-30 10:48 14.59381 -60.99962 19 ft 2 kts 312°
2026-04-30 10:48 14.59371 -60.99949 21 ft 1 kts 277°
2026-04-30 10:48 14.59371 -60.99948 21 ft 0 kts 277°
2026-04-30 10:52 14.59369 -60.99951 21 ft 1 kts 261°
2026-04-30 10:52 14.59362 -60.99987 19 ft 10 kts 258°
2026-04-30 10:52 14.59320 -61.00074 19 ft 16 kts 242°
2026-04-30 10:53 14.59297 -61.00182 17 ft 15 kts 260°
2026-04-30 10:53 14.59279 -61.00289 15 ft 15 kts 260°
2026-04-30 10:53 14.59262 -61.00383 19 ft 12 kts 259°
2026-04-30 10:53 14.59250 -61.00453 18 ft 8 kts 261°
2026-04-30 10:54 14.59240 -61.00516 18 ft 13 kts 260°
2026-04-30 10:54 14.59216 -61.00652 18 ft 25 kts 260°
2026-04-30 10:54 14.59187 -61.00828 20 ft 25 kts 260°
2026-04-30 10:54 14.59158 -61.00998 23 ft 24 kts 260°
2026-04-30 10:55 14.59129 -61.01170 23 ft 25 kts 260°
2026-04-30 10:55 14.59103 -61.01322 24 ft 15 kts 260°
2026-04-30 10:55 14.59080 -61.01364 24 ft 0 kts 200°
2026-04-30 10:56 14.59067 -61.01367 24 ft 6 kts 193°
2026-04-30 10:56 14.58999 -61.01361 24 ft 14 kts 172°
2026-04-30 10:57 14.58918 -61.01430 24 ft 22 kts 267°
2026-04-30 10:57 14.58890 -61.01600 20 ft 25 kts 259°
2026-04-30 10:57 14.58874 -61.01752 17 ft 14 kts 304°
2026-04-30 10:57 14.58864 -61.01811 16 ft 7 kts 172°
2026-04-30 10:58 14.58856 -61.01782 16 ft 0 kts 78°
2026-04-30 10:58 14.58866 -61.01725 17 ft 36 kts 80°
2026-04-30 10:58 14.58953 -61.01219 26 ft 104 kts 80°
2026-04-30 10:59 14.59111 -61.00286 18 ft 158 kts 80°
2026-04-30 10:59 14.59309 -60.99133 478 ft 164 kts 80°
2026-04-30 10:59 14.59514 -60.97971 1139 ft 164 kts 80°
2026-04-30 10:59 14.59722 -60.96821 1817 ft 162 kts 79°
2026-04-30 11:00 14.59919 -60.95677 2347 ft 161 kts 81°
2026-04-30 11:00 14.60112 -60.94538 2907 ft 161 kts 81°
2026-04-30 11:00 14.60306 -60.93387 3321 ft 169 kts 81°
2026-04-30 11:00 14.60519 -60.92114 3517 ft 191 kts 81°
2026-04-30 11:01 14.60758 -60.90679 3695 ft 216 kts 81°
2026-04-30 11:01 14.60730 -60.89062 3947 ft 240 kts 109°
2026-04-30 11:01 14.59717 -60.87622 4390 ft 260 kts 137°
2026-04-30 11:01 14.58225 -60.86511 5107 ft 268 kts 146°
2026-04-30 11:02 14.56611 -60.85511 5848 ft 273 kts 148°
2026-04-30 11:02 14.54967 -60.84496 6574 ft 278 kts 147°
2026-04-30 11:02 14.53323 -60.83421 7276 ft 281 kts 145°
2026-04-30 11:02 14.51691 -60.82288 7984 ft 284 kts 144°
2026-04-30 11:03 14.50065 -60.81108 8682 ft 287 kts 143°
2026-04-30 11:03 14.48437 -60.79894 9348 ft 291 kts 142°
2026-04-30 11:03 14.46798 -60.78655 9998 ft 294 kts 142°
2026-04-30 11:04 14.43309 -60.75995 10392 ft 333 kts 142°
2026-04-30 11:04 14.41413 -60.74549 10774 ft 343 kts 143°
2026-04-30 11:04 14.39486 -60.73082 11337 ft 346 kts 143°
2026-04-30 11:04 14.37543 -60.71605 11976 ft 347 kts 143°
2026-04-30 11:05 14.35593 -60.70125 12614 ft 349 kts 143°
2026-04-30 11:05 14.33631 -60.68639 13239 ft 351 kts 143°
2026-04-30 11:05 14.31658 -60.67144 13830 ft 354 kts 143°
2026-04-30 11:05 14.29666 -60.65631 14310 ft 358 kts 143°
2026-04-30 11:06 14.27657 -60.64101 14824 ft 360 kts 143°
2026-04-30 11:06 14.25633 -60.62561 15320 ft 363 kts 143°
2026-04-30 11:06 14.23588 -60.61009 15808 ft 366 kts 143°
2026-04-30 11:06 14.21558 -60.59473 16329 ft 368 kts 144°
2026-04-30 11:07 14.19459 -60.57886 16806 ft 371 kts 144°
2026-04-30 11:07 14.17402 -60.56330 17291 ft 373 kts 144°
2026-04-30 11:07 14.15300 -60.54735 17731 ft 377 kts 144°
2026-04-30 11:07 14.13175 -60.53124 18161 ft 381 kts 144°
2026-04-30 11:08 14.11030 -60.51501 18578 ft 384 kts 144°
2026-04-30 11:08 14.08872 -60.49868 18972 ft 386 kts 144°
2026-04-30 11:08 14.06699 -60.48223 19360 ft 389 kts 144°
2026-04-30 11:08 14.04537 -60.46525 19772 ft 393 kts 140°
2026-04-30 11:09 14.02561 -60.44565 20157 ft 396 kts 136°
2026-04-30 11:09 14.00595 -60.42563 20555 ft 399 kts 136°
2026-04-30 11:09 13.98618 -60.40548 20964 ft 401 kts 137°
2026-04-30 11:09 13.96632 -60.38523 21404 ft 403 kts 137°
2026-04-30 11:10 13.94633 -60.36486 21809 ft 406 kts 137°
2026-04-30 11:10 13.92620 -60.34442 22198 ft 408 kts 137°
2026-04-30 11:10 13.90591 -60.32383 22582 ft 411 kts 137°
2026-04-30 11:10 13.88549 -60.30311 22957 ft 414 kts 137°
2026-04-30 11:11 13.86495 -60.28225 23335 ft 416 kts 137°
2026-04-30 11:11 13.84431 -60.26128 23675 ft 419 kts 137°
2026-04-30 11:11 13.82353 -60.24017 23967 ft 421 kts 137°
2026-04-30 11:11 13.80261 -60.21895 24255 ft 424 kts 137°
2026-04-30 11:12 13.78157 -60.19759 24541 ft 426 kts 137°
2026-04-30 11:12 13.76040 -60.17611 24815 ft 429 kts 137°
2026-04-30 11:12 13.73913 -60.15449 25103 ft 431 kts 137°
2026-04-30 11:12 13.71774 -60.13278 25378 ft 433 kts 137°
2026-04-30 11:13 13.69620 -60.11097 25646 ft 436 kts 137°
2026-04-30 11:13 13.67455 -60.08907 25906 ft 438 kts 137°
2026-04-30 11:13 13.65277 -60.06702 26163 ft 441 kts 137°
2026-04-30 11:13 13.63089 -60.04487 26427 ft 443 kts 137°
2026-04-30 11:14 13.60893 -60.02261 26717 ft 444 kts 137°
2026-04-30 11:14 13.58687 -60.00028 26966 ft 446 kts 137°
2026-04-30 11:14 13.56471 -59.97783 27215 ft 448 kts 137°
2026-04-30 11:14 13.54274 -59.95556 27449 ft 451 kts 137°
2026-04-30 11:15 13.52004 -59.93259 27678 ft 453 kts 137°
2026-04-30 11:15 13.49783 -59.91015 27905 ft 455 kts 137°
2026-04-30 11:15 13.47517 -59.88728 28137 ft 458 kts 137°
2026-04-30 11:15 13.45241 -59.86430 28363 ft 460 kts 137°
2026-04-30 11:16 13.42954 -59.84120 28573 ft 462 kts 137°
2026-04-30 11:16 13.40658 -59.81804 28791 ft 464 kts 137°
2026-04-30 11:16 13.38348 -59.79475 29005 ft 466 kts 137°
2026-04-30 11:16 13.36028 -59.77137 29218 ft 468 kts 137°
2026-04-30 11:17 13.33700 -59.74785 29426 ft 470 kts 137°
2026-04-30 11:17 13.31365 -59.72423 29626 ft 473 kts 137°
2026-04-30 11:17 13.29019 -59.70048 29814 ft 474 kts 137°
2026-04-30 11:17 13.26663 -59.67664 29993 ft 477 kts 136°
2026-04-30 11:18 13.24292 -59.65274 30146 ft 479 kts 137°
2026-04-30 11:18 13.19513 -59.60466 30439 ft 483 kts 137°
2026-04-30 11:18 13.17109 -59.58048 30604 ft 485 kts 137°
2026-04-30 11:19 13.14701 -59.55627 30818 ft 485 kts 137°
2026-04-30 11:19 13.12292 -59.53205 31021 ft 485 kts 137°
2026-04-30 11:19 13.09881 -59.50782 31212 ft 486 kts 137°
2026-04-30 11:19 13.07462 -59.48356 31401 ft 487 kts 137°
2026-04-30 11:20 13.04991 -59.45981 31598 ft 487 kts 139°
2026-04-30 11:20 13.02455 -59.43673 31792 ft 488 kts 140°
2026-04-30 11:20 12.99876 -59.41411 31987 ft 488 kts 141°
2026-04-30 11:20 12.97277 -59.39166 32193 ft 489 kts 141°
2026-04-30 11:21 12.94677 -59.36918 32374 ft 490 kts 141°
2026-04-30 11:21 12.92078 -59.34652 32577 ft 490 kts 141°
2026-04-30 11:21 12.89496 -59.32374 32820 ft 490 kts 140°
2026-04-30 11:21 12.86926 -59.30084 32944 ft 489 kts 140°
2026-04-30 11:22 12.81807 -59.25488 32977 ft 489 kts 140°
2026-04-30 11:22 12.76685 -59.20907 32982 ft 489 kts 140°
2026-04-30 11:23 12.71550 -59.16345 32980 ft 489 kts 140°
2026-04-30 11:24 12.63845 -59.09504 32993 ft 489 kts 140°
2026-04-30 11:24 12.58710 -59.04943 32990 ft 489 kts 140°
2026-04-30 11:25 12.51022 -58.98116 32997 ft 487 kts 140°
2026-04-30 11:26 12.40780 -58.89035 32994 ft 487 kts 140°
2026-04-30 11:26 12.35656 -58.84495 32991 ft 487 kts 140°
2026-04-30 11:27 12.30529 -58.79957 32994 ft 487 kts 140°
2026-04-30 11:27 12.25436 -58.75449 32994 ft 487 kts 140°
2026-04-30 11:28 12.17756 -58.68654 32994 ft 486 kts 140°
2026-04-30 11:29 12.12645 -58.64137 32994 ft 485 kts 140°
2026-04-30 11:29 12.04986 -58.57365 32991 ft 486 kts 140°
2026-04-30 11:30 11.97318 -58.50598 32991 ft 486 kts 140°
2026-04-30 11:31 11.92203 -58.46093 32987 ft 485 kts 140°
2026-04-30 11:31 11.87099 -58.41591 32986 ft 485 kts 140°
2026-04-30 11:32 11.82005 -58.37098 32988 ft 483 kts 140°
2026-04-30 11:32 11.76920 -58.32621 32991 ft 483 kts 140°
2026-04-30 11:33 11.69296 -58.25912 32992 ft 482 kts 140°
2026-04-30 11:33 11.64215 -58.21440 32988 ft 483 kts 140°
2026-04-30 11:34 11.59131 -58.16966 32989 ft 483 kts 140°
2026-04-30 11:34 11.54039 -58.12496 32989 ft 483 kts 140°
2026-04-30 11:35 11.48951 -58.08029 32989 ft 482 kts 139°
2026-04-30 11:35 11.43881 -58.03579 32991 ft 481 kts 139°
2026-04-30 11:36 11.38845 -57.99159 32991 ft 481 kts 139°
2026-04-30 11:36 11.33778 -57.94713 32987 ft 481 kts 139°
2026-04-30 11:37 11.28703 -57.90270 32990 ft 482 kts 139°
2026-04-30 11:37 11.23619 -57.85814 32989 ft 482 kts 139°
2026-04-30 11:38 11.18531 -57.81365 32988 ft 482 kts 139°
2026-04-30 11:38 11.14303 -57.77665 32989 ft 482 kts 139°
2026-04-30 11:39 11.09222 -57.73213 32986 ft 482 kts 139°
2026-04-30 11:39 11.04144 -57.68766 32986 ft 482 kts 139°
2026-04-30 11:40 10.99057 -57.64324 32989 ft 482 kts 139°
2026-04-30 11:40 10.93962 -57.59880 32989 ft 482 kts 139°
2026-04-30 11:41 10.88870 -57.55431 32988 ft 482 kts 139°
2026-04-30 11:41 10.83779 -57.50985 32989 ft 482 kts 139°
2026-04-30 11:42 10.78684 -57.46544 32986 ft 482 kts 139°
2026-04-30 11:42 10.73600 -57.42105 32987 ft 482 kts 139°
2026-04-30 11:43 10.68511 -57.37670 32988 ft 482 kts 139°
2026-04-30 11:43 10.63457 -57.33266 32988 ft 481 kts 139°
2026-04-30 11:44 10.58372 -57.28838 32989 ft 482 kts 139°
2026-04-30 11:44 10.53287 -57.24405 32986 ft 482 kts 139°
2026-04-30 11:45 10.48199 -57.19977 32985 ft 482 kts 139°
2026-04-30 11:45 10.43108 -57.15558 32990 ft 481 kts 139°
2026-04-30 11:46 10.38025 -57.11139 32985 ft 481 kts 139°
2026-04-30 11:46 10.32951 -57.06721 32985 ft 480 kts 139°
2026-04-30 11:47 10.27867 -57.02311 32987 ft 481 kts 139°
2026-04-30 11:47 10.22781 -56.97902 32985 ft 481 kts 139°
2026-04-30 11:48 10.17702 -56.93486 32984 ft 481 kts 139°
2026-04-30 11:48 10.12625 -56.89073 32983 ft 481 kts 139°
2026-04-30 11:49 10.07544 -56.84669 32986 ft 480 kts 139°
2026-04-30 11:49 10.02463 -56.80275 32986 ft 480 kts 139°
2026-04-30 11:50 9.97390 -56.75884 32986 ft 480 kts 139°
2026-04-30 11:50 9.92314 -56.71492 32986 ft 479 kts 139°
2026-04-30 11:51 9.87241 -56.67099 32986 ft 480 kts 139°
2026-04-30 11:51 9.82202 -56.62731 32986 ft 480 kts 139°
2026-04-30 11:52 9.77125 -56.58340 32984 ft 479 kts 139°
2026-04-30 11:52 9.72055 -56.53962 32986 ft 478 kts 139°
2026-04-30 11:53 9.66991 -56.49585 32986 ft 478 kts 139°
2026-04-30 11:53 9.61928 -56.45214 32986 ft 478 kts 139°
2026-04-30 11:54 9.56866 -56.40836 32986 ft 478 kts 139°
2026-04-30 11:54 9.51802 -56.36460 32986 ft 478 kts 139°
2026-04-30 11:55 9.46731 -56.32091 32989 ft 478 kts 139°
2026-04-30 11:55 9.41661 -56.27722 32987 ft 479 kts 139°
2026-04-30 11:56 9.36586 -56.23349 32986 ft 479 kts 139°
2026-04-30 11:56 9.31508 -56.18980 32986 ft 478 kts 139°
2026-04-30 11:57 9.26448 -56.14620 32986 ft 477 kts 139°
2026-04-30 11:57 9.21392 -56.10268 32986 ft 477 kts 139°
2026-04-30 11:58 9.16333 -56.05920 32985 ft 477 kts 139°
2026-04-30 11:58 9.11279 -56.01562 32986 ft 478 kts 139°
2026-04-30 11:59 9.06046 -55.97416 32987 ft 478 kts 144°
2026-04-30 11:59 9.00589 -55.93561 32986 ft 479 kts 144°
2026-04-30 12:00 8.95122 -55.89690 32989 ft 480 kts 144°
2026-04-30 12:00 8.89662 -55.85822 32985 ft 479 kts 144°
2026-04-30 12:01 8.84201 -55.81952 32983 ft 479 kts 144°
2026-04-30 12:01 8.78743 -55.78094 33358 ft 478 kts 144°
2026-04-30 12:02 8.76018 -55.76170 33596 ft 478 kts 144°
2026-04-30 12:02 8.73291 -55.74242 33827 ft 478 kts 144°
2026-04-30 12:02 8.70566 -55.72313 34068 ft 478 kts 144°
2026-04-30 12:02 8.67841 -55.70388 34288 ft 478 kts 145°
2026-04-30 12:03 8.65121 -55.68467 34503 ft 477 kts 145°
2026-04-30 12:03 8.59681 -55.64627 34904 ft 477 kts 145°
2026-04-30 12:04 8.54243 -55.60782 34984 ft 477 kts 145°
2026-04-30 12:04 8.48810 -55.56943 34984 ft 477 kts 145°
2026-04-30 12:05 8.43373 -55.53109 34979 ft 477 kts 145°
2026-04-30 12:05 8.37978 -55.49297 34980 ft 476 kts 145°
2026-04-30 12:06 8.32545 -55.45463 34980 ft 477 kts 145°
2026-04-30 12:06 8.27101 -55.41631 34978 ft 477 kts 145°
2026-04-30 12:07 8.21662 -55.37795 34979 ft 477 kts 145°
2026-04-30 12:07 8.16224 -55.33962 34977 ft 477 kts 145°
2026-04-30 12:08 8.10786 -55.30137 34971 ft 476 kts 145°
2026-04-30 12:08 8.05353 -55.26314 34975 ft 476 kts 145°
2026-04-30 12:09 7.99919 -55.22484 34975 ft 476 kts 145°
2026-04-30 12:09 7.94490 -55.18658 34975 ft 476 kts 145°
2026-04-30 12:10 7.89057 -55.14836 34978 ft 476 kts 145°
2026-04-30 12:10 7.83616 -55.11020 34978 ft 476 kts 145°
2026-04-30 12:11 7.78179 -55.07209 34975 ft 476 kts 145°
2026-04-30 12:11 7.72747 -55.03387 34972 ft 476 kts 145°
2026-04-30 12:12 7.67321 -54.99566 34976 ft 476 kts 145°
2026-04-30 12:12 7.61886 -54.95751 34975 ft 476 kts 145°
2026-04-30 12:13 7.56483 -54.91962 34977 ft 476 kts 145°
2026-04-30 12:13 7.51010 -54.88118 34978 ft 476 kts 145°
2026-04-30 12:14 7.45573 -54.84303 34975 ft 476 kts 145°
2026-04-30 12:14 7.40140 -54.80493 34975 ft 475 kts 145°
2026-04-30 12:15 7.34755 -54.76715 34975 ft 475 kts 145°
2026-04-30 12:15 7.29325 -54.72922 34975 ft 475 kts 145°
2026-04-30 12:16 7.23893 -54.69117 34975 ft 475 kts 145°
2026-04-30 12:16 7.18473 -54.65305 34975 ft 475 kts 145°
2026-04-30 12:17 7.10327 -54.59602 34975 ft 475 kts 145°
2026-04-30 12:17 7.04911 -54.55812 34975 ft 474 kts 145°
2026-04-30 12:18 6.99494 -54.52022 34975 ft 474 kts 145°
2026-04-30 12:18 6.94075 -54.48231 34975 ft 475 kts 145°
2026-04-30 12:19 6.88652 -54.44440 34972 ft 475 kts 145°
2026-04-30 12:19 6.83225 -54.40647 34972 ft 475 kts 145°
2026-04-30 12:20 6.77796 -54.36858 34971 ft 474 kts 145°
2026-04-30 12:20 6.72379 -54.33071 34969 ft 474 kts 144°
2026-04-30 12:21 6.66961 -54.29279 34972 ft 474 kts 145°
2026-04-30 12:21 6.61542 -54.25500 34972 ft 474 kts 145°
2026-04-30 12:22 6.56115 -54.21717 34972 ft 475 kts 145°
2026-04-30 12:22 6.50689 -54.17929 34972 ft 475 kts 144°
2026-04-30 12:23 6.45263 -54.14137 34972 ft 475 kts 145°
2026-04-30 12:23 6.39838 -54.10352 34972 ft 474 kts 145°
2026-04-30 12:24 6.34418 -54.06570 34972 ft 474 kts 145°
2026-04-30 12:24 6.28998 -54.02784 34969 ft 474 kts 145°
2026-04-30 12:25 6.23583 -53.98991 34973 ft 474 kts 143°
2026-04-30 12:25 6.18299 -53.95008 34972 ft 475 kts 141°
2026-04-30 12:26 6.15699 -53.92964 34854 ft 473 kts 141°
2026-04-30 12:26 6.13993 -53.91617 34706 ft 470 kts 141°
2026-04-30 12:26 6.10594 -53.88952 34400 ft 466 kts 141°
2026-04-30 12:26 6.08032 -53.86971 34174 ft 464 kts 141°
2026-04-30 12:27 6.05469 -53.85007 33943 ft 462 kts 141°
2026-04-30 12:27 6.02911 -53.83058 33691 ft 460 kts 141°
2026-04-30 12:27 6.00367 -53.81123 33434 ft 458 kts 141°
2026-04-30 12:27 5.98657 -53.79820 33264 ft 456 kts 141°
2026-04-30 12:28 5.96172 -53.77922 33015 ft 453 kts 141°
2026-04-30 12:28 5.93671 -53.76007 32766 ft 451 kts 141°
2026-04-30 12:28 5.91184 -53.74103 32524 ft 448 kts 141°
2026-04-30 12:28 5.88711 -53.72209 32271 ft 446 kts 141°
2026-04-30 12:29 5.86256 -53.70326 31964 ft 442 kts 141°
2026-04-30 12:29 5.83823 -53.68461 31432 ft 440 kts 141°
2026-04-30 12:29 5.81397 -53.66603 30903 ft 438 kts 141°
2026-04-30 12:29 5.78982 -53.64751 30368 ft 436 kts 141°
2026-04-30 12:30 5.76576 -53.62910 29826 ft 434 kts 141°
2026-04-30 12:30 5.74183 -53.61083 29289 ft 430 kts 141°
2026-04-30 12:30 5.71815 -53.59277 28793 ft 426 kts 141°
2026-04-30 12:30 5.69467 -53.57487 28301 ft 422 kts 141°
2026-04-30 12:31 5.67143 -53.55715 27826 ft 417 kts 141°
2026-04-30 12:31 5.64843 -53.53956 27352 ft 413 kts 141°
2026-04-30 12:31 5.62568 -53.52215 26901 ft 409 kts 142°
2026-04-30 12:31 5.60318 -53.50490 26451 ft 405 kts 142°
2026-04-30 12:32 5.58087 -53.48779 25996 ft 402 kts 142°
2026-04-30 12:32 5.55871 -53.47082 25547 ft 399 kts 142°
2026-04-30 12:32 5.53670 -53.45400 25081 ft 397 kts 142°
2026-04-30 12:32 5.51479 -53.43728 24612 ft 395 kts 142°
2026-04-30 12:33 5.49299 -53.42065 24136 ft 393 kts 142°
2026-04-30 12:33 5.47129 -53.40406 23655 ft 392 kts 142°
2026-04-30 12:33 5.44980 -53.38761 23103 ft 383 kts 142°
2026-04-30 12:33 5.42907 -53.37177 22637 ft 367 kts 142°
2026-04-30 12:34 5.40912 -53.35654 22188 ft 353 kts 142°
2026-04-30 12:34 5.38990 -53.34189 21753 ft 340 kts 142°
2026-04-30 12:34 5.37118 -53.32761 21337 ft 337 kts 142°
2026-04-30 12:34 5.35280 -53.31355 20923 ft 336 kts 141°
2026-04-30 12:35 5.33399 -53.29915 20501 ft 335 kts 141°
2026-04-30 12:35 5.31548 -53.28499 20092 ft 335 kts 141°
2026-04-30 12:35 5.29695 -53.27088 19679 ft 334 kts 142°
2026-04-30 12:35 5.27866 -53.25699 19274 ft 334 kts 141°
2026-04-30 12:36 5.26017 -53.24289 18870 ft 334 kts 141°
2026-04-30 12:36 5.24169 -53.22876 18459 ft 334 kts 141°
2026-04-30 12:36 5.22318 -53.21462 18022 ft 334 kts 141°
2026-04-30 12:36 5.20467 -53.20049 17565 ft 334 kts 141°
2026-04-30 12:37 5.18622 -53.18641 17115 ft 334 kts 141°
2026-04-30 12:37 5.16857 -53.17095 16222 ft 339 kts 132°
2026-04-30 12:37 5.15323 -53.15300 15364 ft 339 kts 127°
2026-04-30 12:37 5.13928 -53.13392 14527 ft 339 kts 124°
2026-04-30 12:38 5.12593 -53.11438 13710 ft 339 kts 123°
2026-04-30 12:38 5.11268 -53.09484 12798 ft 339 kts 123°
2026-04-30 12:38 5.09930 -53.07544 11914 ft 337 kts 124°
2026-04-30 12:38 5.08576 -53.05630 11061 ft 335 kts 124°
2026-04-30 12:39 5.07213 -53.03747 10286 ft 330 kts 125°
2026-04-30 12:39 5.05890 -53.01944 10051 ft 310 kts 125°
2026-04-30 12:39 5.04656 -53.00268 9943 ft 291 kts 125°
2026-04-30 12:39 5.03496 -52.98691 9952 ft 272 kts 125°
2026-04-30 12:40 5.02371 -52.97161 9421 ft 274 kts 125°
2026-04-30 12:40 5.01238 -52.95616 8694 ft 276 kts 125°
2026-04-30 12:40 5.00101 -52.94061 7973 ft 277 kts 125°
2026-04-30 12:40 4.98963 -52.92505 7362 ft 274 kts 124°
2026-04-30 12:41 4.97869 -52.91008 7114 ft 258 kts 124°
2026-04-30 12:41 4.96813 -52.89566 6898 ft 255 kts 124°
2026-04-30 12:41 4.95768 -52.88137 6697 ft 252 kts 124°
2026-04-30 12:41 4.94750 -52.86745 6488 ft 251 kts 124°
2026-04-30 12:42 4.93718 -52.85335 6279 ft 250 kts 124°
2026-04-30 12:42 4.92689 -52.83930 6056 ft 250 kts 124°
2026-04-30 12:42 4.91665 -52.82528 5836 ft 249 kts 124°
2026-04-30 12:42 4.90644 -52.81131 5617 ft 248 kts 124°
2026-04-30 12:43 4.89624 -52.79737 5444 ft 247 kts 124°
2026-04-30 12:43 4.88607 -52.78348 5279 ft 247 kts 124°
2026-04-30 12:43 4.87590 -52.76958 5104 ft 246 kts 124°
2026-04-30 12:43 4.86580 -52.75580 4903 ft 245 kts 124°
2026-04-30 12:44 4.85573 -52.74209 4712 ft 243 kts 124°
2026-04-30 12:44 4.84570 -52.72844 4510 ft 243 kts 124°
2026-04-30 12:44 4.83572 -52.71480 4313 ft 242 kts 124°
2026-04-30 12:44 4.82578 -52.70120 4115 ft 242 kts 124°
2026-04-30 12:45 4.81585 -52.68763 3925 ft 241 kts 124°
2026-04-30 12:45 4.80604 -52.67427 3729 ft 234 kts 124°
2026-04-30 12:45 4.79652 -52.66133 3558 ft 228 kts 123°
2026-04-30 12:45 4.78711 -52.64853 3413 ft 228 kts 123°
2026-04-30 12:46 4.77775 -52.63574 3271 ft 227 kts 124°
2026-04-30 12:46 4.76836 -52.62294 3131 ft 228 kts 123°
2026-04-30 12:46 4.75903 -52.61020 2982 ft 225 kts 122°
2026-04-30 12:46 4.74986 -52.59767 2835 ft 221 kts 122°
2026-04-30 12:47 4.74086 -52.58532 2684 ft 219 kts 122°
2026-04-30 12:47 4.73403 -52.57186 2541 ft 216 kts 103°
2026-04-30 12:47 4.73246 -52.55707 2393 ft 214 kts 83°
2026-04-30 12:47 4.73624 -52.54284 2249 ft 216 kts 65°
2026-04-30 12:48 4.74255 -52.52922 2113 ft 215 kts 66°
2026-04-30 12:48 4.74883 -52.51564 2018 ft 209 kts 65°
2026-04-30 12:48 4.75473 -52.50285 1987 ft 198 kts 66°
2026-04-30 12:48 4.76044 -52.49047 2005 ft 194 kts 65°
2026-04-30 12:49 4.76603 -52.47835 2010 ft 185 kts 65°
2026-04-30 12:49 4.77107 -52.46742 2012 ft 162 kts 66°
2026-04-30 12:49 4.77550 -52.45782 2017 ft 146 kts 65°
2026-04-30 12:49 4.77966 -52.44874 1921 ft 142 kts 67°
2026-04-30 12:50 4.78371 -52.43963 1524 ft 144 kts 66°
2026-04-30 12:50 4.78786 -52.43070 1231 ft 139 kts 65°
2026-04-30 12:50 4.79198 -52.42192 1046 ft 140 kts 66°
2026-04-30 12:50 4.79606 -52.41313 876 ft 137 kts 64°
2026-04-30 12:51 4.80013 -52.40434 710 ft 140 kts 66°
2026-04-30 12:51 4.80418 -52.39548 535 ft 142 kts 65°
2026-04-30 12:51 4.80823 -52.38647 348 ft 141 kts 66°
2026-04-30 12:51 4.81233 -52.37766 140 ft 138 kts 66°
2026-04-30 12:52 4.81624 -52.36913 30 ft 123 kts 65°
2026-04-30 12:52 4.81890 -52.36342 28 ft 34 kts 64°
2026-04-30 12:52 4.81958 -52.36218 29 ft 12 kts 31°
2026-04-30 12:52 4.81979 -52.36218 29 ft 0 kts 350°
2026-04-30 12:53 4.81982 -52.36219 29 ft 3 kts 350°
2026-04-30 12:53 4.82015 -52.36233 29 ft 5 kts 334°
2026-04-30 12:53 4.82041 -52.36244 29 ft 3 kts 336°
2026-04-30 12:53 4.82053 -52.36250 29 ft 0 kts 336°
2026-04-30 12:55 4.82063 -52.36254 29 ft 6 kts 336°
2026-04-30 12:55 4.82093 -52.36275 29 ft 5 kts 305°
2026-04-30 12:55 4.82091 -52.36297 29 ft 3 kts 246°
2026-04-30 12:56 4.82083 -52.36312 29 ft 2 kts 243°
2026-04-30 12:56 4.82078 -52.36324 29 ft 2 kts 243°
2026-04-30 12:56 4.82075 -52.36331 29 ft 0 kts 262°
2026-04-30 12:56 4.82078 -52.36335 29 ft 0 kts 293°
2026-04-30 12:57 4.82087 -52.36338 29 ft 2 kts 340°
2026-04-30 12:57 4.82098 -52.36342 29 ft 1 kts 340°
2026-04-30 12:57 4.82115 -52.36349 29 ft 3 kts 337°
2026-04-30 12:57 4.82133 -52.36356 29 ft 2 kts 337°
2026-04-30 12:58 4.82145 -52.36362 29 ft 2 kts 333°
2026-04-30 12:58 4.82152 -52.36366 29 ft 0 kts 334°